Grand Junction, CO

6:16 AM MDT on June 28, 2017 (GMT -0600)
Walker

Weather History for KGJT - July, 2012

Change the Weather History Date:

Sunday, July 1, 2012

  Actual Average Record
Temperature  
Mean Temperature 84 °F 77 °F  
Max Temperature 101 °F 92 °F 102 °F (1990)
Min Temperature 67 °F 61 °F 48 °F (1968)
Degree Days  
Heating Degree Days 0 0  
Month to date heating degree days 0 0  
Since 1 June heating degree days 2 22  
Since 1 July heating degree days 0 0  
Cooling Degree Days 19 12  
Month to date cooling degree days 19 12  
Year to date cooling degree days 507 294  
Since 1 June cooling degree days 420 243  
Growing Degree Days 34 (Base 50)    
Moisture  
Dew Point 27 °F    
Average Humidity 15    
Maximum Humidity 23    
Minimum Humidity 6    
Precipitation  
Precipitation 0.00 in 0.02 in 0.58 in (1980)
Month to date precipitation 0.00 0.02  
Year to date precipitation 1.42 4.31  
Snow  
Snow 0.00 in 0.00 in 0.00 in (2015)
Month to date snowfall 0.0 0.0  
Since 1 June snowfall 0.0 0.0  
Since 1 July snowfall 0.0 0.0  
Snow Depth 0.00 in    
Sea Level Pressure  
Sea Level Pressure 29.67 in    
Wind  
Wind Speed 10 mph (ESE)    
Max Wind Speed 21 mph    
Max Gust Speed 25 mph    
Visibility 10 miles    
Events      
T = Trace of Precipitation, MM = Missing Value Source: NWS Daily Summary

Daily Weather History Graph

Daily Weather History Graph

Search for Another Location

Airport or City:

Trip Planner

Search our weather history database for the weather conditions in past years. The results will help you decide how hot, cold, wet, or windy it might be!

Date:

Astronomy

Jul. 01, 2012 Rise Set
Actual Time 5:52 AM MDT 8:43 PM MDT
Civil Twilight 5:20 AM MDT 9:16 PM MDT
Nautical Twilight 4:39 AM MDT 9:56 PM MDT
Astronomical Twilight 3:53 AM MDT 10:42 PM MDT
Moon 6:50 PM MDT (7/1) 3:42 AM MDT (7/1)
Length of Visible Light 15h 56m
Length of Day
14h 51m
Waxing Gibbous, 94% of the Moon is Illuminated
Jul 1
Waxing Gibbous
Jul 3
Full
Jul 10
Last Quarter
Jul 18
New
Jul 26
First Quarter

Hourly Weather History & Observations

Time (MDT) Temp. Dew Point Humidity Pressure Visibility Wind Dir Wind Speed Gust Speed Precip Events Conditions
12:53 AM 80.1 °F 27.0 °F 14% 29.65 in 10.0 mi East 11.5 mph - N/A   Clear
1:53 AM 75.0 °F 28.9 °F 18% 29.65 in 10.0 mi ESE 13.8 mph - N/A   Clear
2:53 AM 73.0 °F 28.0 °F 19% 29.67 in 10.0 mi East 10.4 mph - N/A   Clear
3:53 AM 70.0 °F 28.0 °F 21% 29.67 in 10.0 mi ESE 5.8 mph - N/A   Clear
4:53 AM 69.1 °F 28.0 °F 22% 29.67 in 10.0 mi SE 10.4 mph - N/A   Clear
5:53 AM 68.0 °F 28.4 °F 23% 29.94 in 10.0 mi SE 15.0 mph - N/A   Clear
6:53 AM 70.0 °F 30.0 °F 23% 29.71 in 10.0 mi SE 11.5 mph - N/A   Clear
7:53 AM 79.0 °F 30.0 °F 17% 29.71 in 10.0 mi ESE 10.4 mph - N/A   Clear
8:53 AM 84.0 °F 28.9 °F 14% 29.73 in 10.0 mi East 11.5 mph - N/A   Clear
9:53 AM 86.0 °F 30.9 °F 14% 29.72 in 10.0 mi SSE 13.8 mph 19.6 mph N/A   Clear
10:53 AM 90.0 °F 30.9 °F 12% 29.71 in 10.0 mi SSE 8.1 mph - N/A   Clear
11:53 AM 93.0 °F 30.0 °F 11% 29.69 in 10.0 mi South 6.9 mph - N/A   Clear
12:53 PM 97.0 °F 33.1 °F 11% 29.66 in 10.0 mi WNW 10.4 mph - N/A   Clear
1:53 PM 100.0 °F 23.0 °F 6% 29.65 in 10.0 mi WNW 13.8 mph 24.2 mph N/A   Clear
2:53 PM 99.0 °F 21.0 °F 6% 29.64 in 10.0 mi NW 15.0 mph 23.0 mph N/A   Clear
3:53 PM 100.9 °F 25.0 °F 7% 29.62 in 10.0 mi West 13.8 mph 18.4 mph N/A   Clear
4:53 PM 100.0 °F 23.0 °F 6% 29.61 in 10.0 mi NW 11.5 mph - N/A   Clear
5:53 PM 99.0 °F 23.0 °F 7% 29.60 in 10.0 mi NW 13.8 mph 20.7 mph N/A   Clear
6:53 PM 96.1 °F 28.9 °F 9% 29.61 in 10.0 mi WNW 12.7 mph - N/A   Clear
7:53 PM 91.9 °F 28.9 °F 11% 29.60 in 10.0 mi NW 11.5 mph - N/A   Clear
8:53 PM 84.9 °F 26.1 °F 12% 29.62 in 10.0 mi NNW 6.9 mph - N/A   Clear
9:53 PM 84.9 °F 24.1 °F 11% 29.63 in 10.0 mi Variable 3.5 mph - N/A   Clear
10:53 PM 82.9 °F 28.0 °F 14% 29.66 in 10.0 mi NE 6.9 mph - N/A   Clear
11:53 PM 87.1 °F 27.0 °F 11% 29.63 in 10.0 mi ENE 6.9 mph - N/A   Clear